| time (UTC) | temp F | wind direction | speed MPH | gust MPH | rain 1hr in | rain 24hr in | rain mn in | humidity % | barometer mb |
| 20260506101507 | 72 | 243 | 3.0 | 10.0 | 0.00 | 0.00 | 0.00 | 87 | 1006.2 |
| 20260506100007 | 72 | 194 | 3.0 | 8.0 | 0.00 | 0.00 | 0.00 | 87 | 1006.0 |
| 20260506094506 | 72 | 178 | 4.0 | 10.0 | 0.00 | 0.00 | 0.00 | 87 | 1006.0 |
| 20260506093011 | 72 | 5 | 3.0 | 8.0 | 0.00 | 0.00 | 0.00 | 87 | 1006.1 |
| 20260506091503 | 72 | 240 | 6.0 | 13.0 | 0.00 | 0.00 | 0.00 | 87 | 1005.8 |
| 20260506090002 | 72 | 202 | 5.0 | 13.0 | 0.00 | 0.00 | 0.00 | 86 | 1006.0 |
| 20260506084603 | 72 | 182 | 2.0 | 9.0 | 0.00 | 0.00 | 0.00 | 86 | 1005.9 |
| 20260506083058 | 72 | 216 | 1.0 | 6.0 | 0.00 | 0.00 | 0.00 | 86 | 1005.6 |
| 20260506081556 | 73 | 51 | 3.0 | 8.0 | 0.00 | 0.00 | 0.00 | 86 | 1005.8 |
| 20260506080107 | 73 | 226 | 3.0 | 12.0 | 0.00 | 0.00 | 0.00 | 85 | 1005.9 |
| 20260506073102 | 74 | 65 | 3.0 | 10.0 | 0.00 | 0.00 | 0.00 | 85 | 1005.9 |
| 20260506071548 | 74 | 236 | 5.0 | 13.0 | 0.00 | 0.00 | 0.00 | 85 | 1006.2 |
| 20260506061556 | 75 | 52 | 2.0 | 9.0 | 0.00 | 0.00 | 0.00 | 84 | 1006.5 |
| 20260506044537 | 75 | 28 | 1.0 | 8.0 | 0.00 | 0.00 | 0.00 | 82 | 1006.4 |
| 20260506043035 | 76 | 18 | 1.0 | 10.0 | 0.00 | 0.00 | 0.00 | 81 | 1006.3 |
| 20260506041535 | 76 | 49 | 0.0 | 6.0 | 0.00 | 0.00 | 0.00 | 81 | 1006.2 |
| 20260506040034 | 75 | 49 | 4.0 | 9.0 | 0.00 | 0.00 | 0.00 | 81 | 1005.8 |
| 20260506034534 | 75 | 329 | 2.0 | 6.0 | 0.00 | 0.00 | 0.00 | 82 | 1005.7 |
| 20260506033034 | 74 | 296 | 1.0 | 4.0 | 0.00 | 0.00 | 0.00 | 82 | 1005.5 |
| 20260506031533 | 74 | 296 | 3.0 | 4.0 | 0.00 | 0.00 | 0.00 | 82 | 1005.5 |
| 20260506030033 | 75 | 296 | 0.0 | 5.0 | 0.00 | 0.00 | 0.00 | 81 | 1005.2 |
| 20260506024531 | 75 | 262 | 0.0 | 3.0 | 0.00 | 0.00 | 0.00 | 80 | 1005.0 |
| 20260506023030 | 75 | 262 | 1.0 | 5.0 | 0.00 | 0.00 | 0.00 | 79 | 1004.9 |
| 20260506021530 | 77 | 179 | 1.0 | 4.0 | 0.00 | 0.00 | 0.00 | 77 | 1004.5 |
| 20260506020058 | 78 | 178 | 0.0 | 3.0 | 0.00 | 0.00 | 0.00 | 75 | 1004.4 |
| 20260506014528 | 79 | 178 | 1.0 | 4.0 | 0.00 | 0.00 | 0.00 | 73 | 1004.3 |
| 20260506013027 | 80 | 178 | 1.0 | 3.0 | 0.00 | 0.00 | 0.00 | 71 | 1004.1 |
| 20260506011528 | 81 | 178 | 0.0 | 2.0 | 0.00 | 0.00 | 0.00 | 68 | 1003.9 |
| 20260506010030 | 82 | 178 | 1.0 | 3.0 | 0.00 | 0.00 | 0.00 | 66 | 1003.7 |
| 20260506004526 | 82 | 178 | 1.0 | 6.0 | 0.00 | 0.00 | 0.00 | 65 | 1003.8 |
| 20260506003026 | 83 | 175 | 2.0 | 4.0 | 0.00 | 0.00 | 0.00 | 63 | 1003.8 |
| 20260506001524 | 83 | 175 | 1.0 | 6.0 | 0.00 | 0.00 | 0.00 | 63 | 1003.9 |
| 20260506000041 | 83 | 173 | 2.0 | 5.0 | 0.00 | 0.00 | 0.00 | 63 | 1003.9 |
| 20260505234523 | 84 | 180 | 2.0 | 5.0 | 0.00 | 0.00 | 0.00 | 61 | 1003.9 |
| 20260505233021 | 84 | 140 | 1.0 | 8.0 | 0.00 | 0.00 | 0.00 | 60 | 1003.8 |
| 20260505231525 | 85 | 184 | 3.0 | 7.0 | 0.00 | 0.00 | 0.00 | 61 | 1003.8 |
| 20260505230031 | 85 | 172 | 4.0 | 7.0 | 0.00 | 0.00 | 0.00 | 59 | 1003.7 |
| 20260505224518 | 85 | 184 | 4.0 | 8.0 | 0.00 | 0.00 | 0.00 | 59 | 1003.8 |
| 20260505223016 | 85 | 198 | 1.0 | 7.0 | 0.00 | 0.00 | 0.00 | 59 | 1003.9 |
| 20260505221515 | 85 | 161 | 3.0 | 10.0 | 0.00 | 0.00 | 0.00 | 59 | 1004.0 |
| 20260505220014 | 85 | 160 | 5.0 | 10.0 | 0.00 | 0.00 | 0.00 | 59 | 1004.0 |
| 20260505214512 | 86 | 184 | 3.0 | 7.0 | 0.00 | 0.00 | 0.00 | 58 | 1004.2 |
| 20260505213011 | 87 | 163 | 3.0 | 9.0 | 0.00 | 0.00 | 0.00 | 55 | 1004.3 |
| 20260505211511 | 87 | 188 | 5.0 | 9.0 | 0.00 | 0.00 | 0.00 | 55 | 1004.5 |
| 20260505210006 | 86 | 202 | 3.0 | 9.0 | 0.00 | 0.00 | 0.00 | 56 | 1004.6 |
| 20260505204506 | 87 | 205 | 5.0 | 14.0 | 0.00 | 0.00 | 0.00 | 56 | 1004.9 |
| 20260505203010 | 86 | 160 | 5.0 | 10.0 | 0.00 | 0.00 | 0.00 | 57 | 1005.1 |
| 20260505201601 | 87 | 178 | 5.0 | 10.0 | 0.00 | 0.00 | 0.00 | 57 | 1005.2 |
| 20260505200058 | 85 | 215 | 5.0 | 10.0 | 0.00 | 0.00 | 0.00 | 58 | 1005.3 |
| 20260505194556 | 85 | 193 | 5.0 | 8.0 | 0.00 | 0.00 | 0.00 | 59 | 1005.6 |
| 20260505193054 | 85 | 184 | 3.0 | 11.0 | 0.00 | 0.00 | 0.00 | 60 | 1005.8 |
| 20260505191555 | 85 | 167 | 6.0 | 9.0 | 0.00 | 0.00 | 0.00 | 60 | 1006.0 |
| 20260505190055 | 83 | 153 | 3.0 | 9.0 | 0.00 | 0.00 | 0.00 | 62 | 1006.1 |
| 20260505184545 | 82 | 148 | 3.0 | 9.0 | 0.00 | 0.00 | 0.00 | 63 | 1006.3 |
| 20260505183041 | 81 | 146 | 4.0 | 10.0 | 0.00 | 0.00 | 0.00 | 66 | 1006.6 |
| 20260505181554 | 79 | 167 | 4.0 | 8.0 | 0.00 | 0.00 | 0.00 | 71 | 1007.0 |
| 20260505180036 | 78 | 234 | 3.0 | 10.0 | 0.00 | 0.00 | 0.00 | 73 | 1007.0 |
| 20260505174538 | 77 | 181 | 3.0 | 7.0 | 0.00 | 0.00 | 0.00 | 75 | 1007.3 |
| 20260505173030 | 74 | 190 | 2.0 | 5.0 | 0.00 | 0.00 | 0.00 | 81 | 1007.5 |
| 20260505171533 | 73 | 213 | 4.0 | 7.0 | 0.00 | 0.00 | 0.00 | 83 | 1007.6 |
| 20260505170023 | 72 | 238 | 3.0 | 8.0 | 0.00 | 0.00 | 0.00 | 84 | 1007.5 |
| 20260505164521 | 71 | 213 | 4.0 | 7.0 | 0.00 | 0.00 | 0.00 | 85 | 1007.4 |
| 20260505163020 | 71 | 220 | 4.0 | 8.0 | 0.00 | 0.00 | 0.00 | 85 | 1007.3 |
| 20260505161519 | 70 | 234 | 3.0 | 9.0 | 0.00 | 0.00 | 0.00 | 86 | 1007.2 |
| 20260505153032 | 68 | 155 | 4.0 | 9.0 | 0.00 | 0.00 | 0.00 | 87 | 1007.5 |
| 20260505151516 | 68 | 190 | 3.0 | 10.0 | 0.00 | 0.00 | 0.00 | 87 | 1007.4 |
| 20260505124509 | 66 | 182 | 5.0 | 10.0 | 0.00 | 0.00 | 0.00 | 87 | 1006.8 |
| 20260505123007 | 66 | 190 | 6.0 | 12.0 | 0.00 | 0.00 | 0.00 | 87 | 1006.6 |
| 20260505121506 | 66 | 194 | 4.0 | 8.0 | 0.00 | 0.00 | 0.00 | 87 | 1006.4 |
| 20260505120005 | 66 | 205 | 4.0 | 11.0 | 0.00 | 0.00 | 0.00 | 87 | 1006.2 |
| 20260505114503 | 67 | 205 | 5.0 | 10.0 | 0.00 | 0.00 | 0.00 | 87 | 1006.0 |
| 20260505113001 | 67 | 203 | 4.0 | 11.0 | 0.00 | 0.00 | 0.00 | 87 | 1006.0 |
| 20260505111602 | 67 | 238 | 5.0 | 12.0 | 0.00 | 0.00 | 0.00 | 87 | 1006.0 |
| 20260505110112 | 67 | 165 | 4.0 | 11.0 | 0.00 | 0.00 | 0.00 | 86 | 1005.9 |